Regional Weather Roundup
Issued by NWS

Home | Current Version | Previous Version | Graphics & Text | Print | Product List | Glossary Off
Versions: 1 2 3 4 5 6 7 8 9 10 11 12 13 14 15 16 17 18 19 20 21 22 23 24 25 26 27 28 29 30 31 32 33 34 35 36 37 38 39 40 41 42 43 44 45 46 47 48 49 50

000
ASUS43 KLSX 171110
RWRMO

WEATHER SUMMARY FOR MISSOURI
NATIONAL WEATHER SERVICE SPRINGFIELD MO
500 AM CST TUE JAN 17 2017

NOTE: "FAIR" INDICATES FEW OR NO CLOUDS BELOW 12,000 FEET WITH NO
       SIGNIFICANT WEATHER AND/OR OBSTRUCTIONS TO VISIBILITY.
       CURRENT SKY AND/OR WEATHER CONDITIONS ARE NOT AVAILABLE FOR
       CHILLICOTHE AND FARMINGTON.

MOZ001>031-035>038-043-044-053-054-171200-
...NORTHERN AND WESTERN MISSOURI...

CITY           SKY/WX    TMP DP  RH WIND       PRES   REMARKS
KANSAS CTY INT CLOUDY    34  33  96 W6        30.01R WCI  29
KANSAS C DTWN  CLOUDY    36  34  92 NW7       30.02R FOG
LEE`S SUMMIT   CLOUDY    35  32  88 W10       30.01R HAZE    WCI  27
ST JOSEPH      CLOUDY    34  34 100 NW14      30.01S FOG     WCI  25
CHILLICOTHE      N/A     35  34  96 NW6       29.98R
KIRKSVILLE     CLOUDY    35  35 100 NW13      29.93S WCI  26

$$
MOZ066>068-077>081-088>096-101>105-171200-
...SOUTHWEST MISSOURI...

CITY           SKY/WX    TMP DP  RH WIND       PRES   REMARKS
SPRINGFIELD    CLOUDY    39  35  86 W9        30.02R
JOPLIN         CLOUDY    38  35  89 MISG      30.06R
BRANSON        CLOUDY    39  36  87 W3        30.03S

$$
MOZ032>034-039>042-045>050-055>058-069>072-171200-
...CENTRAL MISSOURI...

CITY           SKY/WX    TMP DP  RH WIND       PRES   REMARKS
COLUMBIA       CLOUDY    40  39  97 W10       29.96S FOG
JEFFERSON CITY CLOUDY    42  37  82 W13       29.99R
ROLLA          CLOUDY    40  37  89 W14       29.97R
SEDALIA        CLOUDY    38  37  97 W12       30.00R
WHITEMAN AFB   CLOUDY    37  37 100 W10       29.99R WCI  29
WARRENSBURG    CLOUDY    36  34  93 W6        30.01R FOG
OSAGE BEACH    CLOUDY    41  37  86 W7        30.01R

$$
MOZ051-052-059>065-171200-
...EAST CENTRAL MISSOURI...

CITY           SKY/WX    TMP DP  RH WIND       PRES   REMARKS
ST LOUIS INTL  CLOUDY    44  37  76 W10       29.94R
SPIRIT OF STL  CLOUDY    43  39  86 W12       29.95S
ST CHARLES     CLOUDY    43  39  86 W10       29.94S

$$
MOZ072>076-082>087-097>100-106>115-171200-
...SOUTH CENTRAL AND SOUTHEAST MISSOURI...

CITY           SKY/WX    TMP DP  RH WIND       PRES   REMARKS
CAPE GIRARDEAU CLEAR     50  43  77 W15       29.96R
FARMINGTON     CLOUDY    43  38  82 W7        29.98R
POPLAR BLUFF   CLEAR     46  40  79 NW6       29.99R
WEST PLAINS    CLOUDY    40  37  89 W10       30.01S

$$




USA.gov is the U.S. government's official web portal to all federal, state and local government web resources and services.